La Crosse, WI

7:24 AM CST on November 22, 2017 (GMT -0600)
La Crosse Municipal

Weather History for KLSE - November, 2013

Change the Weather History Date:

Tuesday, November 26, 2013

  Actual Average Record
Temperature  
Mean Temperature 26 °F 30 °F  
Max Temperature 37 °F 37 °F 65 °F (1914)
Min Temperature 15 °F 23 °F -9 °F (1977)
Degree Days  
Heating Degree Days 39 35  
Month to date heating degree days 738 726  
Since 1 July heating degree days 1252 1354  
Cooling Degree Days 0 0  
Month to date cooling degree days 0 0  
Year to date cooling degree days 917 782  
Moisture  
Dew Point 11 °F    
Average Humidity 48    
Maximum Humidity 63    
Minimum Humidity 33    
Precipitation  
Precipitation T in 0.06 in 1.10 in (1896)
Month to date precipitation 1.77 1.75  
Year to date precipitation 34.37 31.44  
Snow  
Snow T in 0.30 in 2.00 in (1945)
Month to date snowfall 1.0 3.1  
Since 1 July snowfall 1.0 3.3  
Snow Depth T in    
Sea Level Pressure  
Sea Level Pressure 30.19 in    
Wind  
Wind Speed 16 mph (NW)    
Max Wind Speed 25 mph    
Max Gust Speed 31 mph    
Visibility 9 miles    
Events Snow    
T = Trace of Precipitation, MM = Missing Value Source: NWS Daily Summary

Daily Weather History Graph

Daily Weather History Graph

Search for Another Location

Airport or City:

Trip Planner

Search our weather history database for the weather conditions in past years. The results will help you decide how hot, cold, wet, or windy it might be!

Date:

Astronomy

Nov. 26, 2013 Rise Set
Actual Time 7:13 AM CST 4:30 PM CST
Civil Twilight 6:41 AM CST 5:02 PM CST
Nautical Twilight 6:06 AM CST 5:38 PM CST
Astronomical Twilight 5:31 AM CST 6:12 PM CST
Moon 12:04 AM CST (11/26) 12:49 PM CST (11/26)
Length of Visible Light 10h 20m
Length of Day
9h 16m
Last Quarter, 41% of the Moon is Illuminated
Nov 26
Last Quarter
Dec 2
New
Dec 9
First Quarter
Dec 17
Full
Dec 25
Last Quarter

Hourly Weather History & Observations

Time (CST) Temp. Windchill Dew Point Humidity Pressure Visibility Wind Dir Wind Speed Gust Speed Precip Events Conditions
12:53 AM 37.0 °F 28.9 °F 23.0 °F 57% 30.05 in 10.0 mi West 12.7 mph - N/A   Overcast
1:53 AM 34.0 °F 22.7 °F 21.9 °F 61% 30.05 in 10.0 mi NW 19.6 mph 25.3 mph N/A   Overcast
2:53 AM 33.1 °F 23.9 °F 19.9 °F 59% 30.08 in 10.0 mi NNW 12.7 mph - N/A   Overcast
3:53 AM 32.0 °F 20.8 °F 19.0 °F 59% 30.09 in 10.0 mi NNW 17.3 mph - N/A   Overcast
4:53 AM 30.9 °F 20.7 °F 19.0 °F 61% 30.09 in 10.0 mi NW 13.8 mph - N/A   Overcast
5:53 AM 30.9 °F 21.2 °F 19.0 °F 61% 30.08 in 10.0 mi WNW 12.7 mph - N/A   Overcast
6:53 AM 30.0 °F 19.5 °F 17.1 °F 59% 30.10 in 10.0 mi NW 13.8 mph - N/A   Overcast
7:53 AM 30.0 °F 21.7 °F 17.1 °F 59% 30.12 in 10.0 mi WNW 9.2 mph - 0.00 in   Overcast
8:23 AM 28.4 °F 15.4 °F 19.4 °F 69% 30.10 in 3.0 mi NW 19.6 mph 25.3 mph 0.00 in Snow Light Snow
8:26 AM 26.6 °F 13.1 °F 19.4 °F 74% 30.10 in 1.8 mi NW 19.6 mph 25.3 mph 0.00 in Snow Light Snow
8:37 AM 26.6 °F 13.4 °F 19.4 °F 74% 30.11 in 3.0 mi NW 18.4 mph 24.2 mph 0.00 in Snow Light Snow
8:53 AM 27.0 °F 12.5 °F 14.0 °F 58% 30.14 in 10.0 mi NW 23.0 mph 29.9 mph 0.00 in   Overcast
9:53 AM 28.0 °F 14.3 °F 12.0 °F 51% 30.15 in 10.0 mi NW 21.9 mph 28.8 mph N/A   Scattered Clouds
10:53 AM 25.0 °F 10.6 °F 9.0 °F 51% 30.18 in 10.0 mi NW 20.7 mph 29.9 mph 0.00 in   Mostly Cloudy
11:53 AM 24.1 °F 8.7 °F 9.0 °F 53% 30.19 in 10.0 mi NNW 23.0 mph - 0.00 in   Overcast
12:53 PM 26.1 °F 11.6 °F 1.0 °F 34% 30.19 in 10.0 mi NNW 21.9 mph - 0.00 in   Clear
1:53 PM 25.0 °F 9.9 °F 1.9 °F 37% 30.19 in 10.0 mi NW 23.0 mph 31.1 mph N/A   Scattered Clouds
2:53 PM 23.0 °F 8.3 °F 3.0 °F 42% 30.24 in 10.0 mi NNW 19.6 mph 25.3 mph N/A   Mostly Cloudy
3:53 PM 21.9 °F 8.7 °F 5.0 °F 48% 30.25 in 10.0 mi NNW 15.0 mph 21.9 mph N/A   Overcast
4:53 PM 19.9 °F 7.3 °F 3.9 °F 50% 30.28 in 10.0 mi NNW 12.7 mph 20.7 mph N/A   Mostly Cloudy
5:53 PM 19.9 °F 6.2 °F 3.9 °F 50% 30.30 in 10.0 mi NNW 15.0 mph - N/A   Mostly Cloudy
6:53 PM 19.0 °F 5.6 °F 3.9 °F 52% 30.32 in 10.0 mi NNW 13.8 mph - N/A   Scattered Clouds
7:53 PM 18.0 °F 4.8 °F 3.0 °F 52% 30.34 in 10.0 mi NNW 12.7 mph - N/A   Clear
8:53 PM 17.1 °F 5.0 °F 3.0 °F 54% 30.35 in 10.0 mi NNW 10.4 mph 19.6 mph N/A   Clear
9:53 PM 16.0 °F 2.9 °F 3.0 °F 57% 30.36 in 10.0 mi North 11.5 mph - N/A   Clear
10:53 PM 15.1 °F 4.2 °F 3.0 °F 59% 30.37 in 10.0 mi NNW 8.1 mph - N/A   Clear
11:53 PM 15.1 °F 1.8 °F 3.0 °F 59% 30.37 in 10.0 mi NNW 11.5 mph - N/A   Clear